Time,TemperatureF,DewpointF,PressureIn,WindDirection,WindDirectionDegrees,WindSpeedMPH,WindSpeedGustMPH,Humidity,HourlyPrecipIn,Conditions,Clouds,dailyrainin,SoftwareType,DateUTC
2013-06-27 00:02:00,83.0,73.0,29.90,SSE,167,0.0,-999.0,73,-99.99,,,-99.99,,2013-06-27 05:02:00,
2013-06-27 00:12:00,83.0,73.0,29.90,SSE,167,0.0,-999.0,73,-99.99,,,-99.99,,2013-06-27 05:12:00,
2013-06-27 00:21:00,82.0,73.0,29.90,South,171,0.0,-999.0,74,-99.99,,,-99.99,,2013-06-27 05:21:00,
2013-06-27 00:32:00,82.0,73.0,29.91,South,181,0.0,-999.0,74,-99.99,,,-99.99,,2013-06-27 05:32:00,
2013-06-27 00:42:00,82.0,73.0,29.91,South,181,0.0,-999.0,75,-99.99,,,-99.99,,2013-06-27 05:42:00,
2013-06-27 00:53:00,82.0,73.0,29.91,South,181,0.0,-999.0,75,-99.99,,,-99.99,,2013-06-27 05:53:00,
2013-06-27 01:01:00,81.0,73.0,29.91,South,181,0.0,-999.0,76,-99.99,,,-99.99,,2013-06-27 06:01:00,
2013-06-27 01:12:00,81.0,73.0,29.92,South,181,0.0,-999.0,77,-99.99,,,-99.99,,2013-06-27 06:12:00,
2013-06-27 01:22:00,81.0,73.0,29.92,South,181,0.0,-999.0,78,-99.99,,,-99.99,,2013-06-27 06:22:00,
2013-06-27 01:34:00,81.0,74.0,29.92,South,181,0.0,-999.0,79,-99.99,,,-99.99,,2013-06-27 06:34:00,
2013-06-27 01:43:00,80.0,73.0,29.91,South,181,0.0,-999.0,79,-99.99,,,-99.99,,2013-06-27 06:43:00,
2013-06-27 01:53:00,80.0,73.0,29.92,South,181,0.0,-999.0,80,-99.99,,,-99.99,,2013-06-27 06:53:00,
2013-06-27 02:02:00,80.0,73.0,29.92,South,181,0.0,-999.0,80,-99.99,,,-99.99,,2013-06-27 07:02:00,
2013-06-27 02:12:00,80.0,74.0,29.91,South,181,0.0,-999.0,81,-99.99,,,-99.99,,2013-06-27 07:12:00,
2013-06-27 02:22:00,79.0,73.0,29.92,South,181,0.0,-999.0,81,-99.99,,,-99.99,,2013-06-27 07:22:00,
2013-06-27 02:33:00,79.0,73.0,29.92,South,181,0.0,-999.0,81,-99.99,,,-99.99,,2013-06-27 07:33:00,
2013-06-27 02:42:00,79.0,73.0,29.91,South,181,0.0,-999.0,82,-99.99,,,-99.99,,2013-06-27 07:42:00,
2013-06-27 02:52:00,79.0,73.0,29.91,South,181,0.0,-999.0,82,-99.99,,,-99.99,,2013-06-27 07:52:00,
2013-06-27 03:01:00,79.0,73.0,29.91,South,181,0.0,-999.0,82,-99.99,,,-99.99,,2013-06-27 08:01:00,
2013-06-27 03:11:00,79.0,73.0,29.91,South,181,0.0,-999.0,82,-99.99,,,-99.99,,2013-06-27 08:11:00,
2013-06-27 03:22:00,79.0,73.0,29.91,South,181,0.0,-999.0,82,-99.99,,,-99.99,,2013-06-27 08:22:00,
2013-06-27 03:34:00,79.0,73.0,29.91,South,181,0.0,-999.0,82,-99.99,,,-99.99,,2013-06-27 08:34:00,
2013-06-27 03:43:00,78.0,72.0,29.91,South,181,0.0,-999.0,82,-99.99,,,-99.99,,2013-06-27 08:43:00,
2013-06-27 03:52:00,78.0,72.0,29.91,South,181,0.0,-999.0,82,-99.99,,,-99.99,,2013-06-27 08:52:00,
2013-06-27 04:02:00,78.0,72.0,29.91,South,181,0.0,-999.0,83,-99.99,,,-99.99,,2013-06-27 09:02:00,
2013-06-27 04:11:00,78.0,72.0,29.91,South,181,0.0,-999.0,82,-99.99,,,-99.99,,2013-06-27 09:11:00,
2013-06-27 04:22:00,78.0,72.0,29.92,South,179,0.0,-999.0,81,-99.99,,,-99.99,,2013-06-27 09:22:00,
2013-06-27 04:34:00,78.0,72.0,29.92,South,179,0.0,-999.0,81,-99.99,,,-99.99,,2013-06-27 09:34:00,
2013-06-27 04:43:00,78.0,72.0,29.92,South,181,0.0,-999.0,82,-99.99,,,-99.99,,2013-06-27 09:43:00,
2013-06-27 04:53:00,78.0,72.0,29.92,South,181,0.0,-999.0,82,-99.99,,,-99.99,,2013-06-27 09:53:00,
2013-06-27 05:01:00,77.0,71.0,29.92,South,181,0.0,-999.0,82,-99.99,,,-99.99,,2013-06-27 10:01:00,
2013-06-27 05:11:00,77.0,71.0,29.92,South,181,0.0,-999.0,82,-99.99,,,-99.99,,2013-06-27 10:11:00,
2013-06-27 05:22:00,77.0,71.0,29.92,South,181,0.0,-999.0,83,-99.99,,,-99.99,,2013-06-27 10:22:00,
2013-06-27 05:32:00,77.0,71.0,29.92,South,181,0.0,-999.0,83,-99.99,,,-99.99,,2013-06-27 10:32:00,
2013-06-27 05:43:00,77.0,71.0,29.91,South,181,0.0,-999.0,83,-99.99,,,-99.99,,2013-06-27 10:43:00,
2013-06-27 05:54:00,77.0,71.0,29.92,South,181,0.0,-999.0,82,-99.99,,,-99.99,,2013-06-27 10:54:00,
2013-06-27 06:01:00,77.0,71.0,29.92,SSE,155,0.0,-999.0,82,-99.99,,,-99.99,,2013-06-27 11:01:00,
2013-06-27 06:11:00,77.0,71.0,29.92,South,181,0.0,-999.0,82,-99.99,,,-99.99,,2013-06-27 11:11:00,
2013-06-27 06:21:00,77.0,71.0,29.92,SSE,168,0.0,-999.0,82,-99.99,,,-99.99,,2013-06-27 11:21:00,
2013-06-27 06:33:00,77.0,71.0,29.92,South,188,0.0,-999.0,82,-99.99,,,-99.99,,2013-06-27 11:33:00,
2013-06-27 06:43:00,77.0,71.0,29.92,SSE,161,0.0,-999.0,82,-99.99,,,-99.99,,2013-06-27 11:43:00,
2013-06-27 06:52:00,77.0,71.0,29.93,South,184,0.0,-999.0,82,-99.99,,,-99.99,,2013-06-27 11:52:00,
2013-06-27 07:01:00,77.0,71.0,29.93,South,171,0.0,-999.0,82,-99.99,,,-99.99,,2013-06-27 12:01:00,
2013-06-27 07:11:00,77.0,71.0,29.93,SSW,198,0.0,-999.0,82,-99.99,,,-99.99,,2013-06-27 12:11:00,
2013-06-27 07:22:00,77.0,71.0,29.93,South,174,0.0,-999.0,82,-99.99,,,-99.99,,2013-06-27 12:22:00,
2013-06-27 07:34:00,77.0,71.0,29.93,South,174,0.0,-999.0,81,-99.99,,,-99.99,,2013-06-27 12:34:00,
2013-06-27 07:42:00,78.0,71.0,29.93,South,172,0.0,-999.0,80,-99.99,,,-99.99,,2013-06-27 12:42:00,
2013-06-27 08:01:00,79.0,71.0,29.93,SSE,150,0.0,-999.0,76,-99.99,,,-99.99,,2013-06-27 13:01:00,
2013-06-27 08:11:00,80.0,71.0,29.94,SE,145,0.0,-999.0,74,-99.99,,,-99.99,,2013-06-27 13:11:00,
2013-06-27 08:22:00,81.0,72.0,29.93,SE,145,0.0,-999.0,73,-99.99,,,-99.99,,2013-06-27 13:22:00,
2013-06-27 08:34:00,82.0,72.0,29.93,SSE,148,0.0,-999.0,72,-99.99,,,-99.99,,2013-06-27 13:34:00,
2013-06-27 08:43:00,83.0,72.0,29.94,SE,144,0.0,-999.0,69,-99.99,,,-99.99,,2013-06-27 13:43:00,
2013-06-27 08:52:00,83.0,71.0,29.94,SSE,160,0.0,-999.0,68,-99.99,,,-99.99,,2013-06-27 13:52:00,
2013-06-27 09:01:00,83.0,70.0,29.94,SSW,198,0.0,-999.0,66,-99.99,,,-99.99,,2013-06-27 14:01:00,
2013-06-27 09:11:00,84.0,72.0,29.94,SSE,158,0.0,-999.0,67,-99.99,,,-99.99,,2013-06-27 14:11:00,
2013-06-27 09:22:00,84.0,72.0,29.94,SW,227,0.0,-999.0,67,-99.99,,,-99.99,,2013-06-27 14:22:00,
2013-06-27 09:33:00,85.0,71.0,29.94,SSW,202,0.0,-999.0,64,-99.99,,,-99.99,,2013-06-27 14:33:00,
2013-06-27 09:43:00,86.0,72.0,29.94,South,176,0.0,-999.0,63,-99.99,,,-99.99,,2013-06-27 14:43:00,
2013-06-27 09:52:00,87.0,72.0,29.95,SSW,205,0.0,-999.0,61,-99.99,,,-99.99,,2013-06-27 14:52:00,
2013-06-27 10:11:00,88.0,71.0,29.95,South,181,0.0,-999.0,58,-99.99,,,-99.99,,2013-06-27 15:11:00,
2013-06-27 10:22:00,88.0,72.0,29.95,SW,217,0.0,-999.0,59,-99.99,,,-99.99,,2013-06-27 15:22:00,
2013-06-27 10:33:00,88.0,71.0,29.95,SSE,157,0.0,-999.0,57,-99.99,,,-99.99,,2013-06-27 15:33:00,
2013-06-27 10:42:00,89.0,71.0,29.95,South,191,0.0,-999.0,55,-99.99,,,-99.99,,2013-06-27 15:42:00,
2013-06-27 10:52:00,90.0,72.0,29.95,South,175,0.0,-999.0,55,-99.99,,,-99.99,,2013-06-27 15:52:00,
2013-06-27 11:02:00,91.0,72.0,29.95,SSW,209,0.0,-999.0,54,-99.99,,,-99.99,,2013-06-27 16:02:00,
2013-06-27 11:11:00,91.0,71.0,29.94,SSW,195,0.0,-999.0,53,-99.99,,,-99.99,,2013-06-27 16:11:00,
2013-06-27 11:23:00,92.0,72.0,29.95,SSW,208,0.0,-999.0,52,-99.99,,,-99.99,,2013-06-27 16:23:00,
2013-06-27 11:34:00,92.0,71.0,29.95,West,267,0.0,-999.0,50,-99.99,,,-99.99,,2013-06-27 16:34:00,
2013-06-27 11:43:00,92.0,71.0,29.95,SSW,209,0.0,-999.0,51,-99.99,,,-99.99,,2013-06-27 16:43:00,
2013-06-27 11:53:00,93.0,71.0,29.95,South,172,0.0,-999.0,49,-99.99,,,-99.99,,2013-06-27 16:53:00,
2013-06-27 12:01:00,93.0,71.0,29.95,WSW,239,0.0,-999.0,49,-99.99,,,-99.99,,2013-06-27 17:01:00,
2013-06-27 12:11:00,94.0,72.0,29.96,SW,229,0.0,-999.0,50,-99.99,,,-99.99,,2013-06-27 17:11:00,
2013-06-27 12:22:00,94.0,72.0,29.95,SE,131,0.0,-999.0,50,-99.99,,,-99.99,,2013-06-27 17:22:00,
2013-06-27 12:33:00,94.0,72.0,29.95,SSE,164,0.0,-999.0,49,-99.99,,,-99.99,,2013-06-27 17:33:00,
2013-06-27 12:43:00,95.0,73.0,29.95,SSE,150,0.0,-999.0,49,-99.99,,,-99.99,,2013-06-27 17:43:00,
2013-06-27 12:53:00,96.0,72.0,29.95,SSW,206,0.0,-999.0,47,-99.99,,,-99.99,,2013-06-27 17:53:00,
2013-06-27 13:01:00,96.0,72.0,29.95,SE,124,0.0,-999.0,46,-99.99,,,-99.99,,2013-06-27 18:01:00,
2013-06-27 13:11:00,96.0,73.0,29.95,SSW,192,0.0,-999.0,48,-99.99,,,-99.99,,2013-06-27 18:11:00,
2013-06-27 13:22:00,96.0,72.0,29.94,South,179,0.0,-999.0,46,-99.99,,,-99.99,,2013-06-27 18:22:00,
2013-06-27 13:32:00,97.0,72.0,29.94,SSW,196,0.0,-999.0,45,-99.99,,,-99.99,,2013-06-27 18:32:00,
2013-06-27 13:43:00,97.0,73.0,29.94,ENE,72,0.0,-999.0,46,-99.99,,,-99.99,,2013-06-27 18:43:00,
2013-06-27 13:52:00,97.0,72.0,29.94,South,172,0.0,-999.0,45,-99.99,,,-99.99,,2013-06-27 18:52:00,
2013-06-27 14:01:00,97.0,73.0,29.94,ESE,104,0.0,-999.0,46,-99.99,,,-99.99,,2013-06-27 19:01:00,
2013-06-27 14:23:00,98.0,74.0,29.93,South,169,0.0,-999.0,46,-99.99,,,-99.99,,2013-06-27 19:23:00,
2013-06-27 14:33:00,98.0,72.0,29.93,South,189,0.0,-999.0,44,-99.99,,,-99.99,,2013-06-27 19:33:00,
2013-06-27 14:42:00,98.0,72.0,29.93,South,179,0.0,-999.0,43,-99.99,,,-99.99,,2013-06-27 19:42:00,
2013-06-27 14:53:00,98.0,72.0,29.93,East,97,0.0,-999.0,43,-99.99,,,-99.99,,2013-06-27 19:53:00,
2013-06-27 15:01:00,98.0,73.0,29.93,SSE,160,1.0,-999.0,45,-99.99,,,-99.99,,2013-06-27 20:01:00,
2013-06-27 15:11:00,97.0,73.0,29.92,SE,138,1.0,-999.0,46,-99.99,,,-99.99,,2013-06-27 20:11:00,
2013-06-27 15:22:00,97.0,74.0,29.91,South,185,1.0,-999.0,48,-99.99,,,-99.99,,2013-06-27 20:22:00,
2013-06-27 15:36:00,98.0,74.0,29.91,SSE,161,0.0,-999.0,47,-99.99,,,-99.99,,2013-06-27 20:36:00,
2013-06-27 15:45:00,98.0,73.0,29.91,SW,230,0.0,-999.0,45,-99.99,,,-99.99,,2013-06-27 20:45:00,
2013-06-27 15:54:00,97.0,73.0,29.91,South,175,1.0,-999.0,46,-99.99,,,-99.99,,2013-06-27 20:54:00,
2013-06-27 16:03:00,98.0,73.0,29.91,SSE,167,0.0,-999.0,45,-99.99,,,-99.99,,2013-06-27 21:03:00,
2013-06-27 16:13:00,97.0,73.0,29.91,SSW,200,0.0,-999.0,47,-99.99,,,-99.99,,2013-06-27 21:13:00,
2013-06-27 16:24:00,97.0,75.0,29.91,SE,131,0.0,-999.0,49,-99.99,,,-99.99,,2013-06-27 21:24:00,
2013-06-27 16:34:00,97.0,75.0,29.91,SSE,148,0.0,-999.0,49,-99.99,,,-99.99,,2013-06-27 21:34:00,
2013-06-27 16:44:00,97.0,74.0,29.90,SSE,161,0.0,-999.0,48,-99.99,,,-99.99,,2013-06-27 21:44:00,
2013-06-27 16:53:00,97.0,75.0,29.90,SSW,206,1.0,-999.0,50,-99.99,,,-99.99,,2013-06-27 21:53:00,
2013-06-27 17:05:00,97.0,75.0,29.90,SSW,208,0.0,-999.0,50,-99.99,,,-99.99,,2013-06-27 22:05:00,
2013-06-27 17:13:00,97.0,73.0,29.90,SE,134,0.0,-999.0,47,-99.99,,,-99.99,,2013-06-27 22:13:00,
2013-06-27 17:22:00,96.0,74.0,29.89,SSE,164,1.0,-999.0,49,-99.99,,,-99.99,,2013-06-27 22:22:00,
2013-06-27 17:33:00,97.0,75.0,29.89,South,174,0.0,-999.0,50,-99.99,,,-99.99,,2013-06-27 22:33:00,
2013-06-27 17:46:00,97.0,75.0,29.88,South,174,0.0,-999.0,49,-99.99,,,-99.99,,2013-06-27 22:46:00,
2013-06-27 18:03:00,97.0,75.0,29.87,SSW,210,0.0,-999.0,49,-99.99,,,-99.99,,2013-06-27 23:03:00,
2013-06-27 18:15:00,97.0,75.0,29.85,South,181,0.0,-999.0,49,-99.99,,,-99.99,,2013-06-27 23:15:00,
2013-06-27 18:24:00,96.0,74.0,29.84,SE,136,1.0,-999.0,50,-99.99,,,-99.99,,2013-06-27 23:24:00,
2013-06-27 18:34:00,96.0,75.0,29.84,South,171,1.0,-999.0,51,-99.99,,,-99.99,,2013-06-27 23:34:00,
2013-06-27 18:44:00,96.0,75.0,29.84,SSW,202,0.0,-999.0,52,-99.99,,,-99.99,,2013-06-27 23:44:00,
2013-06-27 18:54:00,96.0,75.0,29.83,South,175,1.0,-999.0,51,-99.99,,,-99.99,,2013-06-27 23:54:00,
2013-06-27 19:13:00,96.0,75.0,29.84,SE,134,0.0,-999.0,51,-99.99,,,-99.99,,2013-06-28 00:13:00,
2013-06-27 19:25:00,95.0,76.0,29.84,South,181,0.0,-999.0,54,-99.99,,,-99.99,,2013-06-28 00:25:00,
2013-06-27 19:34:00,95.0,77.0,29.84,South,176,0.0,-999.0,56,-99.99,,,-99.99,,2013-06-28 00:34:00,
2013-06-27 19:44:00,93.0,75.0,29.84,SSE,155,1.0,-999.0,57,-99.99,,,-99.99,,2013-06-28 00:44:00,
2013-06-27 19:53:00,93.0,77.0,29.85,SSE,151,0.0,-999.0,59,-99.99,,,-99.99,,2013-06-28 00:53:00,
2013-06-27 20:13:00,92.0,77.0,29.85,SSW,193,0.0,-999.0,61,-99.99,,,-99.99,,2013-06-28 01:13:00,
2013-06-27 20:23:00,91.0,76.0,29.86,SSW,193,0.0,-999.0,62,-99.99,,,-99.99,,2013-06-28 01:23:00,
2013-06-27 20:35:00,91.0,77.0,29.86,SSW,193,0.0,-999.0,63,-99.99,,,-99.99,,2013-06-28 01:35:00,
2013-06-27 20:45:00,90.0,76.0,29.85,SSW,192,0.0,-999.0,64,-99.99,,,-99.99,,2013-06-28 01:45:00,
2013-06-27 20:54:00,90.0,77.0,29.86,SSW,192,0.0,-999.0,65,-99.99,,,-99.99,,2013-06-28 01:54:00,
2013-06-27 21:04:00,89.0,76.0,29.85,SSW,192,0.0,-999.0,66,-99.99,,,-99.99,,2013-06-28 02:04:00,
2013-06-27 21:15:00,89.0,77.0,29.86,South,191,0.0,-999.0,67,-99.99,,,-99.99,,2013-06-28 02:15:00,
2013-06-27 21:25:00,89.0,77.0,29.86,South,186,0.0,-999.0,68,-99.99,,,-99.99,,2013-06-28 02:25:00,
2013-06-27 21:35:00,88.0,77.0,29.86,SSW,203,0.0,-999.0,69,-99.99,,,-99.99,,2013-06-28 02:35:00,
2013-06-27 21:47:00,88.0,76.0,29.87,SSW,203,0.0,-999.0,68,-99.99,,,-99.99,,2013-06-28 02:47:00,
2013-06-27 22:14:00,89.0,75.0,29.90,WNW,284,4.0,10.0,63,0.00,,,0.00,,2013-06-28 03:14:00,
2013-06-27 23:02:00,85.0,64.0,29.96,WSW,254,6.0,10.0,49,0.00,,,0.00,,2013-06-28 04:02:00,
2013-06-27 23:11:00,84.0,63.0,29.96,WSW,253,3.0,13.0,49,0.00,,,0.00,,2013-06-28 04:11:00,
2013-06-27 23:22:00,84.0,63.0,29.96,West,280,4.0,12.0,49,0.00,,,0.00,,2013-06-28 04:22:00,
2013-06-27 23:33:00,83.0,62.0,29.96,WNW,298,4.0,8.0,50,0.00,,,0.00,,2013-06-28 04:33:00,
2013-06-27 23:43:00,83.0,62.0,29.95,WSW,258,6.0,11.0,49,0.00,,,0.00,,2013-06-28 04:43:00,
2013-06-27 23:53:00,83.0,62.0,29.94,WSW,251,4.0,11.0,49,0.00,,,0.00,,2013-06-28 04:53:00,